Weather History for Indianapolis, IN

Change the Weather History Date:

Sunday, May 12, 2013

  Actual Average (KEYE) Record (KEYE)
Temperature  
Mean Temperature 46 °F 61 °F  
Max Temperature 55 °F 71 °F 85 °F (2011)
Min Temperature 37 °F 52 °F 39 °F (2013)
Degree Days  
Heating Degree Days 19 5  
Month to date heating degree days 76  
Since 1 July heating degree days 5271  
Cooling Degree Days 0 2  
Month to date cooling degree days 13  
Year to date cooling degree days 28  
Moisture  
Dew Point 30 °F    
Average Humidity 55    
Maximum Humidity 86    
Minimum Humidity 31    
Precipitation  
Precipitation 0.00 in 0.17 in 1.56 in (2002)
Month to date precipitation 2.39  
Year to date precipitation 13.93  
Sea Level Pressure  
Sea Level Pressure 30.09 in    
Wind  
Wind Speed 7 mph (WNW)    
Max Wind Speed 18 mph    
Max Gust Speed 29 mph    
Visibility 10 miles    
Events      
T = Trace of Precipitation, MM = Missing Value Source: NWS Daily Summary

Daily Weather History Graph

Daily Weather History Graph

Search for Another Location

Airport:

Trip Planner

Search our weather history database for the weather conditions in past years. The results will help you decide how hot, cold, wet, or windy it might be!

Date:

Astronomy

May. 12, 2013 Rise Set
Actual Time 6:32 AM EDT 8:50 PM EDT
Civil Twilight 6:01 AM EDT 9:21 PM EDT
Nautical Twilight 5:24 AM EDT 9:59 PM EDT
Astronomical Twilight 4:43 AM EDT 10:40 PM EDT
Moon 8:26 AM EDT (5/12) 11:17 PM EDT (5/12)
Length of Visible Light 15h 19m
Length of Day
14h 18m
Waxing Crescent, 6% of the Moon is Illuminated
May 12
Waxing Crescent
May 18
First Quarter
May 25
Full
May 31
Last Quarter
Jun 8
New

Hourly Weather History & Observations

Time (EDT) Temp. Windchill Dew Point Humidity Pressure Visibility Wind Dir Wind Speed Gust Speed Precip Events Conditions
12:15 AM 44.4 °F 42.9 °F 34.2 °F 67% 30.04 in 10.0 mi NNW 3.5 mph - N/A   Clear
12:35 AM 43.7 °F - 34.0 °F 69% 30.04 in 10.0 mi Calm Calm - N/A   Clear
12:55 AM 41.2 °F 39.2 °F 36.0 °F 82% 30.05 in 10.0 mi WSW 3.5 mph - N/A   Clear
1:15 AM 40.6 °F 38.6 °F 36.1 °F 84% 30.05 in 10.0 mi WSW 3.5 mph - N/A   Clear
1:35 AM 40.1 °F 38.0 °F 35.8 °F 85% 30.05 in 10.0 mi WSW 3.5 mph - N/A   Clear
1:55 AM 39.4 °F 37.2 °F 35.6 °F 86% 30.05 in 10.0 mi WSW 3.5 mph - N/A   Clear
2:35 AM 40.5 °F 36.5 °F 35.1 °F 81% 30.06 in 10.0 mi West 5.8 mph - N/A   Clear
2:55 AM 41.0 °F 36.4 °F 33.8 °F 76% 30.05 in 10.0 mi West 6.9 mph - N/A   Clear
3:15 AM 41.0 °F 36.4 °F 32.5 °F 72% 30.05 in 10.0 mi West 6.9 mph - N/A   Clear
3:35 AM 40.8 °F 35.6 °F 32.2 °F 71% 30.05 in 10.0 mi West 8.1 mph - N/A   Clear
3:55 AM 40.5 °F 36.5 °F 32.0 °F 72% 30.04 in 10.0 mi West 5.8 mph - N/A   Clear
4:15 AM 40.1 °F 36.1 °F 31.8 °F 72% 30.04 in 10.0 mi West 5.8 mph - N/A   Clear
4:35 AM 39.6 °F 36.3 °F 31.1 °F 72% 30.04 in 10.0 mi WNW 4.6 mph - N/A   Clear
4:55 AM 39.4 °F 36.1 °F 31.1 °F 72% 30.05 in 10.0 mi WNW 4.6 mph - N/A   Clear
5:15 AM 39.2 °F 35.0 °F 30.7 °F 72% 30.05 in 10.0 mi WNW 5.8 mph - N/A   Clear
5:35 AM 38.5 °F 34.1 °F 30.6 °F 73% 30.05 in 10.0 mi WNW 5.8 mph - N/A   Clear
5:55 AM 38.3 °F 33.9 °F 30.6 °F 74% 30.05 in 10.0 mi West 5.8 mph - N/A   Clear
6:15 AM 37.8 °F 33.3 °F 30.4 °F 75% 30.06 in 10.0 mi West 5.8 mph - N/A   Clear
6:35 AM 38.3 °F 33.9 °F 30.2 °F 73% 30.06 in 10.0 mi WNW 5.8 mph - N/A   Clear
6:55 AM 37.9 °F 33.5 °F 30.2 °F 74% 30.06 in 10.0 mi West 5.8 mph - N/A   Clear
7:15 AM 38.8 °F 34.6 °F 30.7 °F 73% 30.07 in 10.0 mi West 5.8 mph - N/A   Clear
7:35 AM 39.7 °F 35.6 °F 30.9 °F 71% 30.07 in 10.0 mi WNW 5.8 mph - N/A   Clear
7:55 AM 40.8 °F 36.9 °F 30.9 °F 68% 30.08 in 10.0 mi WNW 5.8 mph - N/A   Clear
8:15 AM 41.9 °F 35.9 °F 31.1 °F 66% 30.08 in 10.0 mi WNW 10.4 mph - N/A   Clear
8:35 AM 42.8 °F 36.6 °F 30.6 °F 62% 30.08 in 10.0 mi WNW 11.5 mph - N/A   Clear
8:55 AM 43.7 °F 38.1 °F 30.7 °F 60% 30.08 in 10.0 mi WNW 10.4 mph - N/A   Clear
9:15 AM 44.4 °F 38.6 °F 31.5 °F 60% 30.09 in 10.0 mi WNW 11.5 mph - N/A   Clear
9:35 AM 45.0 °F 39.3 °F 30.9 °F 58% 30.09 in 10.0 mi WNW 11.5 mph - N/A   Clear
9:55 AM 46.2 °F 42.2 °F 31.5 °F 56% 30.10 in 10.0 mi WNW 8.1 mph - N/A   Clear
10:15 AM 46.9 °F - 28.8 °F 49% 30.10 in 10.0 mi NW 16.1 mph 21.9 mph N/A   Clear
10:35 AM 46.6 °F - 26.1 °F 45% 30.10 in 10.0 mi WNW 12.7 mph 23.0 mph N/A   Clear
10:55 AM 47.3 °F - 28.4 °F 48% 30.11 in 10.0 mi NW 12.7 mph 20.7 mph N/A   Clear
11:15 AM 47.3 °F - 29.1 °F 49% 30.11 in 10.0 mi WNW 10.4 mph 20.7 mph N/A   Scattered Clouds
11:35 AM 48.0 °F - 28.9 °F 48% 30.11 in 10.0 mi WNW 13.8 mph 19.6 mph N/A   Mostly Cloudy
11:55 AM 49.1 °F - 29.8 °F 47% 30.12 in 10.0 mi WNW 13.8 mph 21.9 mph N/A   Scattered Clouds
12:15 PM 48.6 °F - 29.7 °F 48% 30.12 in 10.0 mi West 18.4 mph 28.8 mph N/A   Scattered Clouds
12:35 PM 49.5 °F - 30.7 °F 49% 30.12 in 10.0 mi WNW 12.7 mph 24.2 mph N/A   Mostly Cloudy
12:55 PM 50.0 °F - 30.4 °F 47% 30.12 in 10.0 mi WNW 10.4 mph 19.6 mph N/A   Scattered Clouds
1:15 PM 49.8 °F - 30.6 °F 48% 30.12 in 10.0 mi West 17.3 mph 23.0 mph N/A   Scattered Clouds
1:35 PM 50.9 °F - 30.4 °F 45% 30.12 in 10.0 mi WNW 13.8 mph 19.6 mph N/A   Scattered Clouds
1:55 PM 51.3 °F - 30.0 °F 44% 30.12 in 10.0 mi West 17.3 mph 26.5 mph N/A   Mostly Cloudy
2:15 PM 51.8 °F - 30.6 °F 44% 30.12 in 10.0 mi WNW 13.8 mph 27.6 mph N/A   Mostly Cloudy
2:35 PM 52.2 °F - 29.7 °F 42% 30.12 in 10.0 mi WNW 10.4 mph 20.7 mph N/A   Scattered Clouds
2:55 PM 53.1 °F - 29.8 °F 41% 30.12 in 10.0 mi WNW 12.7 mph 19.6 mph N/A   Mostly Cloudy
3:15 PM 52.7 °F - 29.5 °F 41% 30.12 in 10.0 mi West 15.0 mph 24.2 mph N/A   Mostly Cloudy
3:35 PM 53.1 °F - 28.0 °F 38% 30.11 in 10.0 mi WNW 11.5 mph 16.1 mph N/A   Scattered Clouds
3:55 PM 53.2 °F - 27.7 °F 37% 30.11 in 10.0 mi WNW 11.5 mph 23.0 mph N/A   Mostly Cloudy
4:15 PM 54.1 °F - 25.5 °F 33% 30.11 in 10.0 mi WNW 8.1 mph 25.3 mph N/A   Scattered Clouds
4:35 PM 53.6 °F - 25.5 °F 34% 30.11 in 10.0 mi WNW 12.7 mph 21.9 mph N/A   Scattered Clouds
4:55 PM 53.6 °F - 26.6 °F 35% 30.10 in 10.0 mi WNW 9.2 mph 20.7 mph N/A   Mostly Cloudy
5:15 PM 54.9 °F - 26.8 °F 34% 30.10 in 10.0 mi West 12.7 mph 20.7 mph N/A   Mostly Cloudy
5:35 PM 55.4 °F - 26.2 °F 33% 30.10 in 10.0 mi West 15.0 mph 20.7 mph N/A   Scattered Clouds
5:55 PM 54.7 °F - 24.8 °F 32% 30.10 in 10.0 mi WNW 12.7 mph 19.6 mph N/A   Scattered Clouds
6:15 PM 55.0 °F - 25.7 °F 32% 30.09 in 10.0 mi West 13.8 mph 25.3 mph N/A   Mostly Cloudy
6:35 PM 54.3 °F - 23.7 °F 31% 30.09 in 10.0 mi WNW 13.8 mph 18.4 mph N/A   Scattered Clouds
6:55 PM 52.7 °F - 24.3 °F 33% 30.09 in 10.0 mi West 10.4 mph - N/A   Scattered Clouds
7:15 PM 53.6 °F - 25.0 °F 33% 30.09 in 10.0 mi West 8.1 mph 19.6 mph N/A   Scattered Clouds
7:35 PM 52.7 °F - 24.8 °F 34% 30.08 in 10.0 mi West 8.1 mph 16.1 mph N/A   Scattered Clouds
7:55 PM 52.7 °F - 24.3 °F 33% 30.08 in 10.0 mi West 10.4 mph 16.1 mph N/A   Mostly Cloudy
8:15 PM 51.4 °F - 25.7 °F 37% 30.08 in 10.0 mi West 6.9 mph - N/A   Scattered Clouds
8:35 PM 50.9 °F - 28.4 °F 42% 30.08 in 10.0 mi West 5.8 mph - N/A   Mostly Cloudy
8:55 PM 49.8 °F - 29.1 °F 45% 30.09 in 10.0 mi West 4.6 mph - N/A   Mostly Cloudy
9:15 PM 49.6 °F - 28.6 °F 44% 30.09 in 10.0 mi WSW 4.6 mph - N/A   Mostly Cloudy
9:35 PM 48.2 °F - 29.3 °F 48% 30.10 in 10.0 mi West 3.5 mph - N/A   Mostly Cloudy
9:55 PM 47.3 °F - 29.8 °F 51% 30.11 in 10.0 mi West 4.6 mph - N/A   Scattered Clouds
10:15 PM 46.6 °F - 29.8 °F 52% 30.12 in 10.0 mi West 4.6 mph - N/A   Scattered Clouds
10:35 PM 46.4 °F 44.3 °F 28.9 °F 51% 30.12 in 10.0 mi West 4.6 mph - N/A   Scattered Clouds
10:55 PM 45.5 °F 43.2 °F 29.7 °F 54% 30.13 in 10.0 mi West 4.6 mph - N/A   Scattered Clouds
11:15 PM 45.5 °F 44.2 °F 30.9 °F 57% 30.13 in 10.0 mi WNW 3.5 mph - N/A   Mostly Cloudy
11:35 PM 45.0 °F - 30.2 °F 56% 30.13 in 10.0 mi Calm Calm - N/A   Mostly Cloudy
11:55 PM 44.6 °F - 31.1 °F 59% 30.13 in 10.0 mi Calm Calm - N/A   Mostly Cloudy